Regional Weather Roundup
Issued by NWS Nashville, TN

Home | Current Version | Previous Version | Text Only | Print | Product List | Glossary On
Versions: 1 2 3 4 5 6 7 8 9 10 11 12 13 14 15 16 17 18 19 20 21 22 23 24 25 26 27 28 29 30 31 32 33 34 35 36 37 38 39 40 41 42 43 44 45 46 47 48 49 50
000
ASUS44 KOHX 212010
RWROHX
MIDDLE TENNESSEE HOURLY WEATHER ROUNDUP
NATIONAL WEATHER SERVICE NASHVILLE TN
200 PM CST THU NOV 21 2019

NOTE: "FAIR" INDICATES FEW OR NO CLOUDS BELOW 12,000 FEET WITH
NO SIGNIFICANT WEATHER AND/OR OBSTRUCTIONS TO VISIBILITY.

* THESE REPORTS ARE NOT UNDER NWS QUALITY CONTROL AND MAY NOT
  REPORT WEATHER SUCH AS PRECIPITATION AND FOG.


TNZ005>011-023>034-057-059-062>066-078-080-212100
...NORTHERN MIDDLE TENNESSEE...

CITY           SKY/WX    TMP DP  RH WIND       PRES   REMARKS
CLARKSVILLE    CLOUDY    61  42  49 SW14G21   30.07S
CROSSVILLE     FAIR      59  33  37 MISG      30.14F
DICKSON        CLOUDY    61  37  41 SW14G23   30.07S
GALLATIN       PTCLDY    63  37  39 S9G17     30.11F
LEBANON        PTSUNNY   63  37  39 SW13G20   30.08F
LIVINGSTON     MOSUNNY   64  34  32 SW13G20   30.09S
NASHVILLE      PTSUNNY   63  36  36 SW16G23   30.10F
PORTLAND       CLOUDY    63  37  39 SW10      30.08R
ROCKWOOD       PTSUNNY   59  37  44 VRB7G16   30.14F
SMYRNA         PTSUNNY   62  39  42 S8        30.12F
SPARTA         PTSUNNY   63  36  36 SW15G22   30.11F
WEST NASHVILLE MOSUNNY   63  37  39 SW16      30.08S
$$
TNZ056-058-060-061-075>077-079-093>097-212100
...SOUTHERN MIDDLE TENNESSEE...

CITY           SKY/WX    TMP DP  RH WIND       PRES   REMARKS
COLUMBIA       MOSUNNY   61  39  44 SW14G20   30.10F
FAYETTEVILLE   SUNNY     61  39  44 S8        30.13F
LAWRENCEBURG   PTSUNNY   59  39  47 SW8G16    30.13S
LEWISBURG      MOSUNNY   63  39  42 SW12      30.11F
MCMINNVILLE    MOSUNNY   63  36  36 SW9G16    30.13S
MURFREESBORO   MOSUNNY   63  37  39 SW16      30.10F
PULASKI        PTSUNNY   61  41  48 S9        30.13F
SHELBYVILLE    SUNNY     61  39  44 S14       30.12F
TULLAHOMA      SUNNY     61  39  44 S7        30.13F
WINCHESTER     PTSUNNY   63  36  36 SW9       30.14S
$$


...KEY TO REMARKS...
VSB - VISIBILITY IN MILES
WCI - WIND CHILL INDEX
HX  - HEAT INDEX




USA.gov is the U.S. government's official web portal to all federal, state and local government web resources and services.